Location: ?????
(55.8833°N, 37.6500°E)
Time: 18:01:58
(UTC+00:00)

STARLINK-42 - Pass Details

Date: 27 February 2020
Orbit: 393 x 397 km, 53.0° (Epoch: 01 April)

Event Time Altitude Azimuth Distance (km) Brightness Sun altitude
Rises 16:19:35 0° 267° (W) 2,315 8.9 -12.2°
Reaches altitude 10° 16:21:42 10° 262° (W) 1,456 7.2 -12.5°
Maximum altitude 16:24:52 49° 186° (S) 530 3.5 -12.9°
Enters shadow 16:26:37 22° 120° (ESE) 924 4.2 -13.1°
